NKS204 KMCO-KFLL

Flight info

Callsign NKS204
Flight time 0h 44m
Altitude 27000
Route DDANY3 JIPOD CUUDA3
Aircraft A20N/M-SDE2E3FGHIRWXY/LB1

Departure

Time 2026-05-04 00:44
Airport Orlando International Airport (KMCO)

Arrival

Time 2026-05-04 01:28
Airport Fort Lauderdale Hollywood International Airport (KFLL)
Time Latitude Longitude Altitude Speed Heading
2026-05-04 00:41 28.41574 -81.31980 99 ft 0 kts 179°
2026-05-04 00:41 28.41547 -81.32009 100 ft 11 kts 242°
2026-05-04 00:42 28.41539 -81.32118 101 ft 10 kts 275°
2026-05-04 00:42 28.41576 -81.32191 101 ft 9 kts 333°
2026-05-04 00:42 28.41603 -81.32197 101 ft 0 kts 357°
2026-05-04 00:43 28.41609 -81.32198 101 ft 5 kts 357°
2026-05-04 00:43 28.41952 -81.32201 104 ft 94 kts
2026-05-04 00:43 28.42848 -81.32217 124 ft 159 kts
2026-05-04 00:44 28.44028 -81.32250 600 ft 178 kts
2026-05-04 00:44 28.45278 -81.32242 1507 ft 178 kts
2026-05-04 00:44 28.46466 -81.31893 2328 ft 185 kts 30°
2026-05-04 00:44 28.47482 -81.30857 2728 ft 213 kts 57°
2026-05-04 00:45 28.48149 -81.29217 3334 ft 243 kts 71°
2026-05-04 00:45 28.48681 -81.27327 4219 ft 257 kts 73°
2026-05-04 00:45 28.49230 -81.25356 4713 ft 265 kts 73°
2026-05-04 00:45 28.49833 -81.23353 4920 ft 270 kts 71°
2026-05-04 00:46 28.50402 -81.21315 5001 ft 270 kts 78°
2026-05-04 00:46 28.50760 -81.19222 5005 ft 269 kts 80°
2026-05-04 00:46 28.50999 -81.17115 5021 ft 270 kts 90°
2026-05-04 00:46 28.50785 -81.14988 5418 ft 274 kts 104°
2026-05-04 00:47 28.50282 -81.12881 6564 ft 277 kts 105°
2026-05-04 00:47 28.49791 -81.10727 7869 ft 288 kts 105°
2026-05-04 00:47 28.49287 -81.08472 9042 ft 301 kts 105°
2026-05-04 00:47 28.48695 -81.06176 10151 ft 313 kts 115°
2026-05-04 00:48 28.47868 -81.04516 10769 ft 327 kts 130°
2026-05-04 00:48 28.47432 -81.03925 10983 ft 332 kts 137°
2026-05-04 00:48 28.46257 -81.02753 11417 ft 346 kts 145°
2026-05-04 00:48 28.44297 -81.00997 12337 ft 359 kts 146°
2026-05-04 00:49 28.42324 -80.99232 13588 ft 363 kts 146°
2026-05-04 00:49 28.40332 -80.97436 14712 ft 369 kts 147°
2026-05-04 00:49 28.38333 -80.95624 15699 ft 376 kts 147°
2026-05-04 00:49 28.36273 -80.93748 16702 ft 383 kts 148°
2026-05-04 00:50 28.34173 -80.91836 17609 ft 392 kts 148°
2026-05-04 00:50 28.32029 -80.89883 18491 ft 400 kts 148°
2026-05-04 00:50 28.29871 -80.87834 19274 ft 411 kts 143°
2026-05-04 00:50 28.27990 -80.85328 20166 ft 425 kts 131°
2026-05-04 00:51 28.26543 -80.82342 20968 ft 441 kts 118°
2026-05-04 00:51 28.25382 -80.79084 21771 ft 448 kts 117°
2026-05-04 00:51 28.24214 -80.75783 22574 ft 454 kts 118°
2026-05-04 00:51 28.23026 -80.72441 23369 ft 460 kts 118°
2026-05-04 00:52 28.21816 -80.69063 24069 ft 465 kts 118°
2026-05-04 00:52 28.20595 -80.65646 24768 ft 470 kts 118°
2026-05-04 00:52 28.19422 -80.62156 25425 ft 476 kts 116°
2026-05-04 00:52 28.18272 -80.58617 26100 ft 481 kts 116°
2026-05-04 00:53 28.17109 -80.55034 26687 ft 487 kts 116°
2026-05-04 00:53 28.15933 -80.51438 26925 ft 487 kts 116°
2026-05-04 00:53 28.14748 -80.47834 27025 ft 487 kts 117°
2026-05-04 00:53 28.13558 -80.44239 27041 ft 488 kts 117°
2026-05-04 00:54 28.12363 -80.40640 27051 ft 488 kts 117°
2026-05-04 00:54 28.11101 -80.37088 27050 ft 482 kts 123°
2026-05-04 00:54 28.09357 -80.33914 27050 ft 469 kts 136°
2026-05-04 00:54 28.07135 -80.31300 27059 ft 454 kts 149°
2026-05-04 00:55 28.04559 -80.29358 27060 ft 438 kts 162°
2026-05-04 00:55 28.01775 -80.28144 27032 ft 423 kts 173°
2026-05-04 00:55 27.98932 -80.27328 27056 ft 421 kts 175°
2026-05-04 00:55 27.96088 -80.26514 27056 ft 422 kts 174°
2026-05-04 00:56 27.93254 -80.25594 27061 ft 425 kts 172°
2026-05-04 00:56 27.90433 -80.24582 27064 ft 426 kts 171°
2026-05-04 00:56 27.87620 -80.23515 27064 ft 427 kts 171°
2026-05-04 00:56 27.84845 -80.22437 27066 ft 427 kts 170°
2026-05-04 00:57 27.82034 -80.21338 27060 ft 427 kts 170°
2026-05-04 00:57 27.79224 -80.20239 27061 ft 427 kts 170°
2026-05-04 00:57 27.76413 -80.19142 27063 ft 428 kts 170°
2026-05-04 00:57 27.73604 -80.18047 27063 ft 427 kts 170°
2026-05-04 00:58 27.70790 -80.16953 27035 ft 428 kts 170°
2026-05-04 00:58 27.67975 -80.15861 27055 ft 426 kts 170°
2026-05-04 00:58 27.65182 -80.14776 27059 ft 424 kts 170°
2026-05-04 00:58 27.62386 -80.13692 27055 ft 425 kts 170°
2026-05-04 00:59 27.59594 -80.12586 27055 ft 426 kts 169°
2026-05-04 00:59 27.56806 -80.11434 27055 ft 427 kts 169°
2026-05-04 00:59 27.54025 -80.10274 27055 ft 427 kts 168°
2026-05-04 00:59 27.51241 -80.09114 27054 ft 427 kts 169°
2026-05-04 01:00 27.48455 -80.07960 27054 ft 426 kts 169°
2026-05-04 01:00 27.45670 -80.06810 27053 ft 426 kts 169°
2026-05-04 01:00 27.42884 -80.05663 27052 ft 426 kts 169°
2026-05-04 01:00 27.40101 -80.04519 27050 ft 426 kts 169°
2026-05-04 01:01 27.37301 -80.03473 27050 ft 421 kts 173°
2026-05-04 01:01 27.34476 -80.02616 27048 ft 421 kts 174°
2026-05-04 01:01 27.31649 -80.01755 27048 ft 421 kts 174°
2026-05-04 01:01 27.28824 -80.00893 27049 ft 421 kts 174°
2026-05-04 01:02 27.25999 -80.00030 27049 ft 421 kts 174°
2026-05-04 01:02 27.23181 -79.99116 27048 ft 423 kts 172°
2026-05-04 01:02 27.20375 -79.98098 27037 ft 423 kts 171°
2026-05-04 01:02 27.17602 -79.97059 26921 ft 416 kts 171°
2026-05-04 01:03 27.14877 -79.96043 26404 ft 411 kts 171°
2026-05-04 01:03 27.12169 -79.95050 25696 ft 408 kts 171°
2026-05-04 01:03 27.09473 -79.94073 24869 ft 407 kts 171°
2026-05-04 01:03 27.06777 -79.93103 24141 ft 406 kts 171°
2026-05-04 01:04 27.04108 -79.92086 23453 ft 404 kts 169°
2026-05-04 01:04 27.01478 -79.91014 22704 ft 400 kts 168°
2026-05-04 01:04 26.98880 -79.89941 21991 ft 396 kts 168°
2026-05-04 01:04 26.96310 -79.88886 21291 ft 391 kts 168°
2026-05-04 01:05 26.93763 -79.87851 20589 ft 387 kts 168°
2026-05-04 01:05 26.91240 -79.86832 19908 ft 384 kts 168°
2026-05-04 01:05 26.88735 -79.85823 19231 ft 381 kts 168°
2026-05-04 01:05 26.86255 -79.84827 18592 ft 377 kts 167°
2026-05-04 01:06 26.83799 -79.83840 17935 ft 374 kts 167°
2026-05-04 01:06 26.81376 -79.82864 17449 ft 364 kts 167°
2026-05-04 01:06 26.79022 -79.81915 16952 ft 356 kts 167°
2026-05-04 01:06 26.76716 -79.80989 16524 ft 348 kts 167°
2026-05-04 01:07 26.74485 -79.80093 16014 ft 343 kts 167°
2026-05-04 01:07 26.72216 -79.79201 15450 ft 338 kts 169°
2026-05-04 01:07 26.69937 -79.78845 14943 ft 325 kts 186°
2026-05-04 01:07 26.67779 -79.79211 14457 ft 313 kts 201°
2026-05-04 01:08 26.65748 -79.80030 13965 ft 309 kts 205°
2026-05-04 01:08 26.63740 -79.80858 13462 ft 306 kts 205°
2026-05-04 01:08 26.61756 -79.81671 12984 ft 301 kts 205°
2026-05-04 01:08 26.59800 -79.82470 12523 ft 298 kts 204°
2026-05-04 01:09 26.57867 -79.83258 12056 ft 294 kts 204°
2026-05-04 01:09 26.55958 -79.84034 11671 ft 288 kts 204°
2026-05-04 01:09 26.54080 -79.84822 11415 ft 296 kts 206°
2026-05-04 01:09 26.52132 -79.85736 11058 ft 308 kts 207°
2026-05-04 01:10 26.50189 -79.86674 10928 ft 300 kts 207°
2026-05-04 01:10 26.48286 -79.87585 10518 ft 297 kts 207°
2026-05-04 01:10 26.46392 -79.88486 10011 ft 295 kts 207°
2026-05-04 01:10 26.44523 -79.89367 9661 ft 286 kts 207°
2026-05-04 01:11 26.42704 -79.90220 9216 ft 282 kts 207°
2026-05-04 01:11 26.40903 -79.91065 8722 ft 279 kts 207°
2026-05-04 01:11 26.39122 -79.91901 8267 ft 276 kts 206°
2026-05-04 01:11 26.37432 -79.92836 8084 ft 269 kts 214°
2026-05-04 01:12 26.35813 -79.93892 7985 ft 269 kts 213°
2026-05-04 01:12 26.34199 -79.94933 7668 ft 268 kts 213°
2026-05-04 01:12 26.32586 -79.95968 7249 ft 267 kts 213°
2026-05-04 01:12 26.30988 -79.96992 6987 ft 266 kts 213°
2026-05-04 01:13 26.29371 -79.98030 6935 ft 268 kts 213°
2026-05-04 01:13 26.27755 -79.99066 6892 ft 268 kts 213°
2026-05-04 01:13 26.26143 -80.00099 6851 ft 267 kts 213°
2026-05-04 01:13 26.24530 -80.01135 6812 ft 267 kts 213°
2026-05-04 01:14 26.22920 -80.02169 6777 ft 267 kts 213°
2026-05-04 01:14 26.21310 -80.03204 6721 ft 267 kts 212°
2026-05-04 01:14 26.19725 -80.04223 6678 ft 266 kts 213°
2026-05-04 01:14 26.18325 -80.05507 6626 ft 257 kts 232°
2026-05-04 01:15 26.17459 -80.07174 6549 ft 243 kts 251°
2026-05-04 01:15 26.16937 -80.08954 6500 ft 253 kts 252°
2026-05-04 01:15 26.16373 -80.10863 6461 ft 261 kts 252°
2026-05-04 01:15 26.15798 -80.12779 6420 ft 261 kts 251°
2026-05-04 01:16 26.15269 -80.14712 6376 ft 260 kts 257°
2026-05-04 01:16 26.15036 -80.16638 6499 ft 240 kts 266°
2026-05-04 01:16 26.15038 -80.18446 6411 ft 228 kts 269°
2026-05-04 01:16 26.15053 -80.20174 6163 ft 219 kts 269°
2026-05-04 01:17 26.15061 -80.21825 6034 ft 206 kts 269°
2026-05-04 01:17 26.15067 -80.23359 6021 ft 190 kts 269°
2026-05-04 01:17 26.15071 -80.24761 6043 ft 171 kts 269°
2026-05-04 01:17 26.15075 -80.26091 6026 ft 175 kts 268°
2026-05-04 01:18 26.15077 -80.27435 6025 ft 173 kts 268°
2026-05-04 01:18 26.15081 -80.28778 6024 ft 173 kts 268°
2026-05-04 01:18 26.15086 -80.30116 6023 ft 173 kts 268°
2026-05-04 01:18 26.15090 -80.31452 6022 ft 173 kts 268°
2026-05-04 01:19 26.15095 -80.32794 6020 ft 173 kts 268°
2026-05-04 01:19 26.15100 -80.34136 6019 ft 173 kts 268°
2026-05-04 01:19 26.15103 -80.35477 6018 ft 173 kts 268°
2026-05-04 01:19 26.15100 -80.36816 6017 ft 173 kts 268°
2026-05-04 01:20 26.15096 -80.38153 6016 ft 173 kts 268°
2026-05-04 01:20 26.15094 -80.39475 5873 ft 169 kts 268°
2026-05-04 01:20 26.15091 -80.40808 5334 ft 178 kts 268°
2026-05-04 01:20 26.15087 -80.42246 4567 ft 194 kts 269°
2026-05-04 01:21 26.15084 -80.43800 4175 ft 205 kts 268°
2026-05-04 01:21 26.14702 -80.45327 4024 ft 215 kts 237°
2026-05-04 01:21 26.13553 -80.46381 4017 ft 219 kts 204°
2026-05-04 01:21 26.12038 -80.46540 4011 ft 225 kts 171°
2026-05-04 01:22 26.10648 -80.45727 4010 ft 232 kts 138°
2026-05-04 01:22 26.09681 -80.44293 4012 ft 233 kts 122°
2026-05-04 01:22 26.08886 -80.42720 4011 ft 234 kts 121°
2026-05-04 01:22 26.08055 -80.41168 4013 ft 233 kts 124°
2026-05-04 01:23 26.07204 -80.39631 3991 ft 235 kts 116°
2026-05-04 01:23 26.06775 -80.37881 3803 ft 236 kts 97°
2026-05-04 01:23 26.06697 -80.36068 3490 ft 234 kts 90°
2026-05-04 01:23 26.06708 -80.34273 3189 ft 231 kts 91°
2026-05-04 01:24 26.06695 -80.32507 2883 ft 222 kts 90°
2026-05-04 01:24 26.06685 -80.30860 2598 ft 204 kts 90°
2026-05-04 01:24 26.06675 -80.29339 2339 ft 190 kts 90°
2026-05-04 01:24 26.06666 -80.27924 2125 ft 175 kts 90°
2026-05-04 01:25 26.06658 -80.26648 1911 ft 155 kts 90°
2026-05-04 01:25 26.06651 -80.25537 1713 ft 134 kts 89°
2026-05-04 01:25 26.06647 -80.24875 1598 ft 125 kts 89°
2026-05-04 01:25 26.06641 -80.23898 1432 ft 126 kts 89°
2026-05-04 01:26 26.06635 -80.22930 1272 ft 125 kts 88°
2026-05-04 01:26 26.06629 -80.21965 1105 ft 125 kts 88°
2026-05-04 01:26 26.06624 -80.21000 941 ft 125 kts 88°
2026-05-04 01:26 26.06617 -80.20038 799 ft 123 kts 88°
2026-05-04 01:27 26.06619 -80.19080 647 ft 124 kts 87°
2026-05-04 01:27 26.06615 -80.18121 461 ft 125 kts 89°
2026-05-04 01:27 26.06595 -80.17121 292 ft 132 kts 88°
2026-05-04 01:27 26.06595 -80.16117 125 ft 128 kts 89°
2026-05-04 01:28 26.06584 -80.15158 24 ft 117 kts 89°
2026-05-04 01:28 26.06583 -80.14429 46 ft 66 kts 90°
2026-05-04 01:28 26.06581 -80.14135 65 ft 19 kts 90°
2026-05-04 01:28 26.06581 -80.13974 71 ft 23 kts 91°
2026-05-04 01:29 26.06614 -80.13795 69 ft 22 kts 55°
2026-05-04 01:29 26.06694 -80.13717 69 ft 15 kts 17°
2026-05-04 01:29 26.06748 -80.13789 72 ft 14 kts 272°
2026-05-04 01:29 26.06743 -80.13922 71 ft 20 kts 267°
2026-05-04 01:30 26.06708 -80.14061 70 ft 17 kts 240°
2026-05-04 01:30 26.06677 -80.14179 54 ft 14 kts 268°
2026-05-04 01:30 26.06676 -80.14330 49 ft 23 kts 271°
2026-05-04 01:30 26.06676 -80.14493 44 ft 23 kts 270°
2026-05-04 01:31 26.06675 -80.14666 32 ft 25 kts 269°
2026-05-04 01:31 26.06678 -80.14824 21 ft 17 kts 277°
2026-05-04 01:31 26.06713 -80.14914 17 ft 11 kts 326°
2026-05-04 01:31 26.06765 -80.14882 15 ft 12 kts 75°
2026-05-04 01:32 26.06767 -80.14749 15 ft 20 kts 90°
2026-05-04 01:32 26.06767 -80.14632 15 ft 13 kts 90°
2026-05-04 01:32 26.06812 -80.14563 16 ft 13 kts 57°
2026-05-04 01:32 26.06819 -80.14504 15 ft 0 kts 90°
2026-05-04 01:33 26.06819 -80.14502 15 ft 0 kts 90°
2026-05-04 01:34 26.06819 -80.14498 15 ft 2 kts 90°
2026-05-04 01:34 26.06820 -80.14461 15 ft 7 kts 89°
2026-05-04 01:34 26.06854 -80.14430 16 ft 7 kts
2026-05-04 01:35 26.06877 -80.14431 15 ft 2 kts 359°
2026-05-04 01:35 26.06880 -80.14431 15 ft 0 kts 360°